JCSAT-2B

Last updated on Wed Jul 09 2025 00:02:46 GMT+0000 (Coordinated Universal Time)

1 41471U 16028A 25189.54020122 -.00000150 00000+0 00000+0 0 9990 2 41471 0.0189 29.4314 0001424 90.0328 155.7328 1.00270591 33678
UTC large
Height (km)
Speed (km/s)
/
Latitude / Longitude
Inclination (degrees)
Orbital Period (minutes)
Azimuth
Elevation
Range (km)
Doppler Factor

Next 0 passes for location: London (51.5072 / 0.1276)

Sorry there are no passes over London.